www.pogodaiklimat.ru

Погода и климат >> Архив погоды >> Россия >> Татарстан >> Лаишево


ПОГОДА в Лаишево

  • Прогноз погоды в Лаишево
  • Монитор погоды в Лаишево

АРХИВ ПОГОДЫ в Лаишево

Время (UTC), дата Ветер
(напр.,м/с)
 
Видим.   Явления Облачность Т
(С)
Тd
(С)
f
(%)
Тe
(С)
Тes
(С)
Комфортность P
(гПа)
Po
(гПа)
Тmin
(С)
Tmax
(С)
R
(мм)
R24
(мм)
S
(см)
00 15.09 ЮЗ 4 н/о н/о +11.6 +10.1 91 +9 +9 1011.7 996.4
03 15.09 З 2 н/о н/о +11.4 +10.4 94 +10 +10 1011.6 996.2 +11.4 1
06 15.09 З 2 н/о н/о +12.9 +9.8 81 +12 +12 1011.9 996.7 +11.2
09 15.09 ЮЗ 5 н/о н/о +13.9 +6.1 59 +12 +12 1011.6 996.3
12 15.09 ЮЗ 3 н/о н/о +14.5 +3.9 49 +14 +14 1011.2 996.0
15 15.09 ЮЗ 2 н/о н/о +12.1 +3.0 54 +11 +11 1010.8 995.5 +16.4 0.3
18 15.09 ЮЗ 4 н/о н/о +10.4 +4.4 66 +8 +8 1010.8 995.4
21 15.09 ЮЗ 3 н/о н/о +8.2 +4.5 77 +6 +6 1009.9 994.4
00 16.09 ЮЗ 3 н/о н/о +8.1 +4.8 80 +5 +5 1009.2 993.7
03 16.09 Ю 5 н/о н/о +9.2 +4.8 74 +6 +6 1007.3 991.9 +7.2
06 16.09 Ю 7-12
{14}
н/о н/о +10.3 +4.8 69 +7 +7 1004.6 989.3
09 16.09 Ю 6
{14}
н/о н/о +10.7 +7.0 78 +8 +8 1002.5 987.3
12 16.09 Ю 7-11
{12}
н/о н/о +9.5 +7.9 90 +5 +5 1000.7 985.4
15 16.09 Ю 7-11
{13}
н/о н/о +10.1 +8.1 87 +6 +6 999.2 984.0 +11.3 3
18 16.09 ЮЗ 6
{11}
н/о н/о +10.5 +8.5 87 +7 +7 998.8 983.6
21 16.09 ЮЗ 5
{12}
н/о н/о +9.9 +7.7 86 +7 +7 998.4 983.1
00 17.09 З 3 н/о н/о +8.8 +7.0 88 +6 +6 998.8 983.5
03 17.09 ЮЗ 5 н/о н/о +8.9 +6.7 86 +5 +5 998.9 983.6 +8.4 0.3
06 17.09 Ю 6 н/о н/о +12.3 +8.0 75 +10 +10 998.9 983.8
09 17.09 ЮЗ 8-12
{12}
н/о н/о +14.7 +7.0 60 +13 +13 998.4 983.4
12 17.09 ЮЗ 6
{12}
н/о н/о +15.2 +5.4 52 +14 +14 997.9 982.9
15 17.09 Ю 4
{18}
н/о н/о +12.5 +7.7 73 +11 +11 997.9 982.8 +16.3 0.8
18 17.09 ЮЗ 3
{16}
н/о н/о +10.2 +6.5 78 +8 +8 998.8 983.6
21 17.09 ЮЗ 5 н/о н/о +9.1 +5.4 78 +6 +6 998.7 983.4
00 18.09 З 2 н/о н/о +7.4 +4.4 81 +5 +5 999.3 983.9
03 18.09 ЮЗ 3 н/о н/о +6.9 +4.8 86 +4 +4 1000.0 984.6 +6.1 0.5
06 18.09 ЮЗ 4 н/о н/о +10.6 +6.2 74 +8 +8 1000.7 985.5
09 18.09 ЮЗ 5 н/о н/о +14.3 +5.0 54 +13 +13 1000.8 985.7
12 18.09 Ю 3
{13}
н/о н/о +10.3 +6.6 78 +8 +8 1001.5 986.2
15 18.09 ЮЗ 5 н/о н/о +10.5 +4.4 66 +8 +8 1000.9 985.6 +14.4
18 18.09 Ю 2 н/о н/о +7.7 +4.6 81 +6 +6 999.8 984.4
21 18.09 В 2 н/о н/о +7.4 +5.7 89 +5 +5 997.3 982.0
00 19.09 С 2 н/о н/о +7.5 +6.4 93 +5 +5 993.6 978.3
03 19.09 СЗ 2 н/о н/о +7.1 +6.2 94 +5 +5 991.5 976.2 +6.4 4
06 19.09 СЗ 2 н/о н/о +8.0 +6.1 88 +6 +6 993.9 978.6
09 19.09 З 4
{10}
н/о н/о +11.3 +3.5 59 +9 +9 998.3 983.1
12 19.09 ЮЗ 4 н/о н/о +11.9 +3.6 57 +10 +10 1002.2 987.0
15 19.09 З 3
{11}
н/о н/о +9.2 +4.6 73 +7 +7 1005.0 989.7 +13.4 2
18 19.09 З 2 н/о н/о +8.1 +5.4 83 +6 +6 1007.2 991.7
21 19.09 З 1 н/о н/о +6.8 +5.2 90 +6 +6 1008.7 993.2
00 20.09 З 1 н/о н/о +6.9 +5.4 90 +6 +6 1010.2 994.6
03 20.09 З 1 н/о н/о +6.9 +5.9 93 +6 +6 1011.4 995.8 +6.2
06 20.09 З 3 н/о н/о +10.2 +3.6 64 +8 +8 1012.9 997.5
09 20.09 ЮЗ 2 н/о н/о +10.0 +3.1 62 +9 +9 1013.3 997.8
12 20.09 ЮВ 2 н/о н/о +9.9 +3.1 63 +9 +9 1012.9 997.4
15 20.09 СВ 1 н/о н/о +7.8 +5.6 86 +7 +7 1012.5 996.9 +11.3 0.3
18 20.09 Ю 1 н/о н/о +6.7 +5.6 93 +6 +6 1012.3 996.7
21 20.09 Ю 4 н/о н/о +7.6 +5.6 87 +4 +4 1011.1 995.5
00 21.09 ЮЗ 4 н/о н/о +6.5 +4.9 90 +3 +3 1010.4 994.7
03 21.09 ЮЗ 3 н/о н/о +5.5 +3.3 86 +2 +2 1010.6 994.9 +5.1 3
06 21.09 З 3 н/о н/о +5.9 +2.6 79 +3 +3 1011.1 995.4
09 21.09 СЗ 2 н/о н/о +8.3 +1.2 61 +7 +7 1010.4 994.8
12 21.09 З 1 н/о н/о +8.9 +0.3 55 +9 +9 1009.4 993.9
15 21.09 З 1 н/о н/о +5.6 +1.9 77 +5 +5 1008.6 993.0 +11.0
18 21.09 З 1 н/о н/о +3.2 +0.4 82 +2 +2 1008.2 992.4
21 21.09 З 2 н/о н/о +2.2 +0.6 89 -1 -1 1006.9 991.1

 

Местоположение метеостанции Лаишево (Татарстан, Россия): широта 55.42 долгота 49.53 высота над уровнем моря 129 м.

В архиве по умолчанию представлена погода в Лаишево за последнюю неделю. Архивные данные за месяц целиком и за предыдущие месяцы, начиная с января 2011 года, Вы можете получить, выбрав интересующий диапазон дат из раскрывающегося списка и нажав кнопку "Ввод!".


*Определитесь, кто Вы:
робот инопланетянин человек

Внимание! Время в таблицах - всемирное. Для получения местного времени необходимо прибавить поправку, которая равна 3 ч.

Смотрите также архив погоды в соседних городах и на ближайших метеорологических станциях:

Погода в Камском Устье (Татарстан, Россия) (29 км)
Погода в Алексеевском (Татарстан, Россия) (38 км)
Погода в Казани (Татарстан, Россия) (40 км)
Погода в Тетюшах (Татарстан, Россия) (71 км)
Погода в Чистополе (Татарстан, Россия) (72 км)
Погода в Арске (Татарстан, Россия) (76 км)
Погода в Вязовых (Татарстан, Россия) (77 км)
Погода в Больших Кайбицах (Татарстан, Россия) (85 км)
Погода в Богатых Сабах (Татарстан, Россия) (88 км)
Погода в Аксубаево (Татарстан, Россия) (103 км)

Пояснения к столбцам:

Ветер - указаны скорость ветра в м/с - средняя за 10 мин, порывы в срок и между сроками (в фигурных скобках) и направление, откуда дует ветер: С - северный, СВ - северо-восточный, В - восточный, ЮВ - юго-восточный, Ю - южный, ЮЗ - юго-западный, З - западный, СЗ - северо-западный.
Видимость - горизонтальная дальность видимости в метрах или километрах. При видимости от 1 до 10 км при отсутствии осадков обычно наблюдается дымка, при ухудшении видимости до 1 км и менее - туман. В сухую погоду видимость может ухудшаться дымом, пылью или мглою.
Явления - указаны атмосферные явления, наблюдавшиеся в срок или в последний час перед сроком; фигурными скобками обозначены явления, наблюдавшиеся между сроками (за 1-3 часа до срока); квадратными скобками обозначены град или гололедные отложения с указанием их диаметра в мм.
Облачность - указаны через наклонную черту общая и нижняя облачность в баллах и высота нижней границы облаков в метрах; квадратными скобками обозначены формы облаков: Ci - перистые, Cs - перисто-слоистые, Cc - перисто-кучевые, Ac - высококучевые, As - высокослоистые, Sc - слоисто-кучевые, Ns - слоисто-дождевые, Cu - кучевые, Cb - кучево-дождевые. Подробнее классификацию облаков см. в Атласе облаков (PDF).
T - Температура воздуха - температура, измеренная на высоте 2 м над землей.
Td - Температура точки росы - температура, при понижении до которой содержащийся в воздухе водяной пар достигнет насыщения.
f - Относительная влажность воздуха - влажноcть воздуха, измеренная на высоте 2 м над землей.
Te - Эффективная температура - температура, которую ощущает одетый по сезону человек в тени. Характеристика душности погоды. При расчете учитывается влияние влажности воздуха и скорости ветра на теплоощущения человека.
Tes - Эффективная температура на солнце - температура, которую ощущает человек, с поправкой на солнечный нагрев. Характеристика знойности погоды. Зависит от высоты солнца над горизонтом, облачности и скорости ветра. Ночью, в пасмурную погоду, а также при ветре 12 м/с и более поправка равна нулю.
P - Атмосферное давление - приведенное к уровню моря атмосферное давление.
Po - Атмосферное давление - измеренное на уровне метеостанции атмосферное давление.
Tmin - Минимальная температура - минимум температуры воздуха на высоте 2 м над землей.
Tmax - Максимальная температура - максимум температуры воздуха на высоте 2 м над землей.
R - Количество осадков - Количество выпавших осадков за период времени, мм. При наведении курсора мыши на число - период времени, за который выпало указанное количество осадков.
R24 - Количество осадков - Количество выпавших осадков за 24 часа, мм.
S - Снежный покров - Высота снежного покрова, см. При наведении курсора мыши на число - состояние снежного покрова и степень покрытия местности в баллах.